Other Public Products
Issued by NWS Grand Forks, ND

Home | Current Version | Previous Version | Graphics & Text | Print | Product List | Glossary On
Versions: 1 2 3 4 5 6 7 8 9 10 11 12 13 14 15 16 17 18 19 20 21 22 23 24 25 26 27 28 29 30 31 32 33 34 35 36 37 38 39 40 41 42 43 44 45 46 47 48 49 50
000
FPUS83 KFGF 282331
OPUFGF
PRAIRIE TO PINES WEATHER ROUNDUP
NATIONAL WEATHER SERVICE EASTERN NORTH DAKOTA/GRAND FORKS ND
500 PM CST SAT FEB 28 2015

 **SATELLITE DATA USED TO AUGMENT SKY COVER AT AUTOMATED STATIONS**
 *****  WEATHER ACROSS EASTERN NORTH DAKOTA  *****

CITY           SKY/WX    TMP DP  RH WIND       PRES   REMARKS
GRAND FORKS    LGT SNOW  22  17  81 SW14      30.10F WCI   9
GRAND FORKS AF FLURRIES  21  14  73 W10       30.10S WCI  10
GRAND CITY NWS   N/A     21 N/A N/A W15         N/A  WCI   8
BUXTON         NOT AVBL
DEVILS LAKE    SUNNY     10   0  61 W15       30.10S WCI  -6
FARGO          CLOUDY    26  15  63 S21       30.15S WCI  12
WAHPETON ARPT  CLOUDY    25  16  68 S15       30.18S WCI  12
$$

 *****  WEATHER ACROSS CENTRAL AND WESTERN NORTH DAKOTA  *****

CITY           SKY/WX    TMP DP  RH WIND       PRES   REMARKS
JAMESTOWN      CLOUDY    18  11  74 NW14      30.11R WCI   4
BISMARCK       PTSUNNY   19   4  51 NW16G24   30.16R WCI   4
MINOT          MOSUNNY   11   3  70 W17       30.13R WCI  -6
MINOT AFB      CLOUDY    10   5  79 NW16      30.12S WCI  -7
GARRISON         N/A     13   4  67 NW20      30.13S WCI  -5
WILLISTON      CLOUDY    16   4  59 W8        30.15S WCI   5
DICKINSON      PTSUNNY   18   4  54 W23       30.08S WCI   0
HETTINGER      CLOUDY    19   4  51 NW18G29   30.11S WCI   4
$$

 *****  OTHER OBSERVATIONS NORTHEAST NORTH DAKOTA  *****

CITY           SKY/WX    TMP DP  RH WIND       PRES   REMARKS
WALHALLA         N/A     16   7  67 W9        30.09R WCI   4
LANGDON        NOT AVBL
CAVALIER       FAIR      18   9  68 W7        30.09R WCI   8
GRAFTON        NOT AVBL
CANDO          CLOUDY     9   1  72 W14       30.10S WCI  -8
FORT TOTTEN    NOT AVBL
ROLLA          FAIR      10   3  72 W3        30.05S
RUGBY          FAIR       7   0  72 W16       30.11S WCI -11
 ***** THE ABOVE OBSERVATIONS ARE NON NWS ARE NOT QUALITY
        CONTROLLED AND MAY MIS-REPORT RAIN FOR SNOW...
$$

 *****  OTHER OBSERVATIONS SOUTHEAST NORTH DAKOTA *****

CITY           SKY/WX    TMP DP  RH WIND       PRES   REMARKS
COOPERSTOWN    NOT AVBL
VALLEY CITY    CLOUDY    19  14  79 W13       30.11R WCI   7
OAKES            N/A     25  16  68 W14       30.13R WCI  13
GWINNER        CLOUDY    28  18  64 SW16      30.14S WCI  17
SHEYENNE NWR     N/A     26  14  61 SW9       29.95S WCI  17
BUFFALO        NOT AVBL
WYNDMERE         N/A     25  18  74 SW9         N/A  WCI  15
 ***** THE ABOVE OBSERVATIONS ARE NON NWS ARE NOT QUALITY
       CONTROLLED AND MAY MIS-REPORT RAIN FOR SNOW...
$$

  *****  WEATHER ACROSS NORTHERN MINNESOTA  *****

CITY           SKY/WX    TMP DP  RH WIND       PRES   REMARKS
FLAG ISLAND    LGT SNOW  21  16  79 SW20      30.06F WCI   6
WARROAD        LGT SNOW  21  18  86 SW12      30.08S WCI   9
ROSEAU         LGT SNOW  23  18  80 SW14      30.07F WCI  11
HALLOCK        CLOUDY    21  16  79 SW10      30.08S WCI  10
THF RVR FALLS  CLOUDY    21  18  86 S17       30.09F WCI   7
HALSTAD          N/A     23  16  73 SW15        N/A  WCI  10
FOSSTON        LGT SNOW  19  16  86 S20G25    30.11F VSB 3/4 WCI   4
BAUDETTE       CLOUDY    23   9  55 S20G30    30.08F WCI   8
WASKISH        MOCLDY    25   9  50 S7        30.12F WCI  17
CROOKSTON      PTSUNNY   23  18  80 SW14      30.12F WCI  11
$$
  *****  WEATHER ACROSS CENTRAL AND WEST MINNESOTA  *****

CITY           SKY/WX    TMP DP  RH WIND       PRES   REMARKS
BEMIDJI        MOCLDY    21   9  60 S17G24    30.13S WCI   7
PARK RAPIDS    CLOUDY    20  11  68 S17G26    30.16S WCI   5
WADENA         LGT SNOW  18  12  79 S13       30.19S WCI   4
DETROIT LAKES  MIX PCPN  21  18  86 S15       30.15F WCI   8
MOORHEAD       RAIN      25  19  80 S15G22    30.16S WCI  12
FERGUS FALLS   FLURRIES  21  12  68 S14       30.22S WCI   8
ELBOW LAKE     CLOUDY    21  14  75 S22       30.19S WCI   4
MORRIS MN      CLOUDY    21  14  73 S16       30.20F WCI   7
STAPLES        CLOUDY    18  10  73 S15       30.20F WCI   3
WHEATON        MOSUNNY   21  14  73 SE12G17   30.21S WCI   9
$$
  *****  WEATHER ELSEWHERE ACROSS MINNESOTA  *****

CITY           SKY/WX    TMP DP  RH WIND       PRES   REMARKS
DULUTH         MOCLDY    20   2  45 S14       30.23F WCI   7
INTRNTL FALLS  CLOUDY    22   0  38 SW9       30.13F WCI  12
ELY            PTCLDY    19  -2  38 S12G18    30.19F WCI   7
CLOQUET        MOCLDY    19   0  42 S9G16     30.24F WCI   9
BRAINERD       CLOUDY    19   6  57 S20       30.23F WCI   3
HIBBING        CLOUDY    21  -3  35 SW12      30.20F WCI   9
ALEXANDRIA     LGT SNOW  19  11  70 S17       30.21F WCI   4
SAINT CLOUD    CLOUDY    19   5  54 S20       30.30S WCI   3
MINNEAPOLIS    MOCLDY    16   2  54 S15G24    30.38S WCI   1
$$

  *****  WEATHER ACROSS SOUTH DAKOTA  *****

CITY           SKY/WX    TMP DP  RH WIND       PRES   REMARKS
SIOUX FALLS    PTSUNNY   27  13  55 S15G23    30.20F WCI  15
BROOKINGS      NOT AVBL
WATERTOWN      SUNNY     25  13  60 S14       30.13F WCI  13
HURON          CLOUDY    32  15  49 S8        30.13F WCI  25
SISSETON         N/A     27  15  61 S12       30.15F WCI  17
ABERDEEN       CLOUDY    28  15  58 SW9       30.14S WCI  19
MITCHELL       SUNNY     34  10  37 S13       30.17S WCI  25
PIERRE         SUNNY     30   7  37 NW15      30.14R WCI  19
MOBRIDGE       MOSUNNY   24  10  55 NW13      30.12R WCI  12
RAPID CITY     MOSUNNY   22  11  62 N15       30.10R WCI   9
$$

  *****  SOME WEATHER IN NEARBY STATES *****

CITY           SKY/WX    TMP DP  RH WIND       PRES   REMARKS
GLASGOW MT     MOSUNNY   24   5  44 W17G23    30.13S WCI  11
GREAT FALLS MT PTSUNNY   23   9  55 W14       30.12F WCI  11
CHEYENNE WY    PTSUNNY   21  11  65 VRB6      29.90R WCI  13
SCOTTSBLUFF NE SUNNY     32  10  40 NE8       30.01S WCI  25
OMAHA NE       LGT SNOW  23  16  74 S12       30.36F FOG     WCI  12
DES MOINES IA  LGT SNOW  22  16  78 S8        30.40F WCI  12
DAVENPORT IA   LGT SNOW  16   7  67 SE9       30.51S WCI   4
CHICAGO IL     CLOUDY    19   2  47 S7        30.54F WCI  10
EAU CLAIRE WI  PTCLDY    17  -1  45 S9        30.41F WCI   6
LA CROSSE WI   PTCLDY    18  -2  41 S12       30.47F WCI   5
$$

  *****  SOME NATIONAL WEATHER *****

CITY           SKY/WX    TMP DP  RH WIND       PRES   REMARKS
LA GUARDIA NY  PTCLDY    29   3  33 NW3       30.74S
RALEIGH NC     MOCLDY    34  16  47 NE7       30.69R
ATLANTA GA     PTCLDY    52  29  41 SE13      30.48R
NEW ORLEANS LA PTSUNNY   59  47  64 E12       30.31R
OKLAHOMA CITY  FRZ DRZL  27  23  86 E6        30.29F FOG     WCI  20
ALBUQUERQUE NM PTSUNNY   37  28  70 N10       29.90F
SALT LAKE CITY CLOUDY    40  28  62 N9G16     29.73R
LOS ANGELES CA PTSUNNY   60  47  61 SW14G22   29.84S
BOISE ID       MOSUNNY   46  33  60 W10       29.85S
SEATTLE WA     SUNNY     54  25  32 N10       30.18F
$$

*** WEATHER ACROSS MANITOBA...SASKATCHEWAN AND ONTARIO ***
                ***ONTARIO***

CITY           SKY/WX    TMP DP  RH WIND       PRES   REMARKS
GERALDTON      MOCLDY    18   5  57 S16       30.20F WCI   3
THUNDER BAY    MOCLDY    19   9  63 S17G24    30.27F WCI   4
SIOUX LOOKOUT  CLOUDY    23   1  39 SW8       30.07F WCI  14
TORONTO        PTCLDY    19   3  49 SW10      30.66F WCI   8
BIG TROUT LK   CLOUDY    16   7  67 W9        29.95S WCI   4
PICKLE LAKE    CLOUDY    19   1  45 SW9G18    30.02F WCI   9
DRYDEN         CLOUDY    23   3  42 S13G18    30.06F WCI  11
KENORA         CLOUDY    19   7  58 S10       30.04F WCI   8
$$
                *** MANITOBA***

CITY           SKY/WX    TMP DP  RH WIND       PRES   REMARKS
BRANDON        MOSUNNY    9   0  66 W15       30.08S WCI  -8
DAUPHIN        SUNNY     10   3  72 W25G31    30.02S HAZE    WCI -10
ISLAND LAKE    CLOUDY    19   5  53 W13G22    29.94S WCI   7
PILOT MOUND      N/A      9   0  66 W9          N/A  WCI  -5
THE PAS        FLURRIES  18   7  62 W12G20    29.94S WCI   5
THOMPSON       LGT SNOW  18  12  79 NW14      29.85R DRFTSNOWWCI   4
WINNIPEG       MOCLDY    16   9  73 SW12      30.08S WCI   3
LYNN LAKE      FLURRIES  14   5  67 NW12      29.88R WCI   0
CHURCHILL      PTCLDY    -2  -9  71 NW18      29.86R WCI -24
GILLAM         SNOW      16  14  93 NW12G18   29.82R VSB 1/2 WCI   3
$$
                ***SASKATCHEWAN***

CITY           SKY/WX    TMP DP  RH WIND       PRES   REMARKS
ESTEVAN        MOSUNNY   10   3  72 W16       30.12S WCI  -7
KINDERSLEY     LGT SNOW  18  12  79 W14       30.08S DRFTSNOWWCI   4
LLOYDMINSTER   FLURRIES  21  16  79 NW17G23   30.03R WCI   7
PRINCE ALBERT  CLOUDY    18  10  73 NW13      30.00R WCI   4
REGINA         PTSUNNY   12   7  79 W13       30.08S WCI  -3



USA.gov is the U.S. government's official web portal to all federal, state and local government web resources and services.